Ocean City, MD

6:40 PM EDT on April 29, 2017 (GMT -0400)
Ocean City Municipal

Weather History for KOXB - October, 2012

Change the Weather History Date:

Thursday, October 4, 2012

  Actual Average (KSBY) Record (KSBY)
Temperature  
Mean Temperature 75 °F -  
Max Temperature 84 °F 72 °F 89 °F (1922)
Min Temperature 66 °F 51 °F 30 °F (1974)
Cooling Degree Days 10    
Growing Degree Days 25 (Base 50)    
Moisture  
Dew Point 70 °F    
Average Humidity 87    
Maximum Humidity 100    
Minimum Humidity 54    
Precipitation  
Precipitation 0.00 in - - ()
Sea Level Pressure  
Sea Level Pressure 30.11 in    
Wind  
Wind Speed 2 mph (West)    
Max Wind Speed 9 mph    
Max Gust Speed -    
Visibility 7 miles    
Events Fog    
Averages and records for this station are not official NWS values.
T = Trace of Precipitation, MM = Missing Value Source: NWS Daily Summary

Daily Weather History Graph

Daily Weather History Graph

Search for Another Location

Airport or City:

Trip Planner

Search our weather history database for the weather conditions in past years. The results will help you decide how hot, cold, wet, or windy it might be!

Date:

Astronomy

Oct. 04, 2012 Rise Set
Actual Time 6:59 AM EDT 6:38 PM EDT
Civil Twilight 6:32 AM EDT 7:04 PM EDT
Nautical Twilight 6:02 AM EDT 7:34 PM EDT
Astronomical Twilight 5:31 AM EDT 8:05 PM EDT
Moon 9:15 PM EDT (10/4) 11:10 AM EDT (10/4)
Length of Visible Light 12h 31m
Length of Day
11h 38m
Waning Gibbous, 82% of the Moon is Illuminated
Oct 4
Waning Gibbous
Oct 8
Last Quarter
Oct 15
New
Oct 21
First Quarter
Oct 29
Full

Hourly Weather History & Observations

Time (EDT) Temp. Heat Index Dew Point Humidity Pressure Visibility Wind Dir Wind Speed Gust Speed Precip Events Conditions
12:53 AM 73.0 °F - 72.0 °F 96% 30.12 in 4.0 mi Calm Calm - N/A   Partly Cloudy
1:53 AM 73.0 °F - 72.0 °F 96% 30.13 in 5.0 mi Calm Calm - N/A   Scattered Clouds
2:53 AM 72.0 °F - 72.0 °F 100% 30.12 in 7.0 mi Calm Calm - N/A   Partly Cloudy
3:53 AM 73.0 °F - 72.0 °F 96% 30.11 in 7.0 mi Calm Calm - N/A   Clear
4:53 AM 73.0 °F - 73.0 °F 100% 30.11 in 7.0 mi WSW 3.5 mph - N/A   Partly Cloudy
5:53 AM 73.0 °F - 73.0 °F 100% 30.12 in 6.0 mi Calm Calm - N/A   Mostly Cloudy
6:53 AM 72.0 °F - 72.0 °F 100% 30.13 in 4.0 mi Calm Calm - N/A   Mostly Cloudy
7:11 AM 71.6 °F - 71.6 °F 100% 30.13 in 1.2 mi Calm Calm - N/A   Clear
7:19 AM 71.6 °F - 71.6 °F 100% 30.13 in 0.5 mi Calm Calm - N/A Fog Fog
7:28 AM 71.6 °F - 71.6 °F 100% 30.13 in 1.5 mi Calm Calm - N/A   Scattered Clouds
7:42 AM 73.4 °F - 73.4 °F 100% 30.13 in 2.5 mi Calm Calm - N/A   Mostly Cloudy
7:53 AM 73.0 °F - 73.0 °F 100% 30.13 in 3.0 mi Calm Calm - N/A   Mostly Cloudy
8:22 AM 73.4 °F - 73.4 °F 100% 30.13 in 4.0 mi WSW 4.6 mph - N/A   Scattered Clouds
8:33 AM 73.4 °F - 73.4 °F 100% 30.14 in 5.0 mi West 4.6 mph - N/A   Mostly Cloudy
8:51 AM 75.2 °F - 73.4 °F 94% 30.14 in 5.0 mi West 5.8 mph - N/A   Overcast
8:53 AM 75.0 °F - 73.9 °F 96% 30.14 in 6.0 mi West 4.6 mph - N/A   Overcast
9:53 AM 77.0 °F - 73.9 °F 90% 30.14 in 8.0 mi WNW 4.6 mph - N/A   Mostly Cloudy
10:53 AM 79.0 °F - 72.0 °F 79% 30.12 in 10.0 mi Calm Calm - N/A   Mostly Cloudy
11:53 AM 84.9 °F 88.8 °F 69.1 °F 59% 30.12 in 10.0 mi Variable 5.8 mph - N/A   Mostly Cloudy
12:53 PM 84.0 °F 87.8 °F 69.1 °F 61% 30.10 in 10.0 mi West 5.8 mph - N/A   Clear
1:53 PM 82.9 °F 84.6 °F 64.9 °F 54% 30.09 in 10.0 mi WSW 9.2 mph - N/A   Mostly Cloudy
2:53 PM 81.0 °F 83.0 °F 66.0 °F 60% 30.08 in 10.0 mi West 4.6 mph - N/A   Partly Cloudy
3:53 PM 80.1 °F 81.2 °F 62.1 °F 54% 30.07 in 10.0 mi West 5.8 mph - N/A   Mostly Cloudy
4:53 PM 77.0 °F - 64.0 °F 64% 30.07 in 10.0 mi WNW 4.6 mph - N/A   Clear
6:53 PM 73.0 °F - 64.0 °F 73% 30.07 in 10.0 mi West 5.8 mph - N/A   Clear
7:53 PM 71.1 °F - 64.9 °F 81% 30.07 in 10.0 mi West 5.8 mph - N/A   Clear
8:53 PM 69.1 °F - 64.9 °F 87% 30.08 in 10.0 mi WNW 4.6 mph - N/A   Clear
9:53 PM 68.0 °F - 64.9 °F 90% 30.09 in 10.0 mi WNW 3.5 mph - N/A   Clear
10:53 PM 66.9 °F - 64.9 °F 93% 30.10 in 10.0 mi NW 4.6 mph - N/A   Clear
11:53 PM 66.0 °F - 64.0 °F 93% 30.10 in 8.0 mi Calm Calm - N/A   Clear